THOR ABLESTAR R/B, 204

Orbit data source: Space-Track

THOR ABLESTAR R/B, 204 is space debris in LEO originally from a launch on Wed, 15 Nov 1961 UTC launched from the Air Force Eastern Test Range (AFETR). Debris objects in space refer to the collection of defunct objects orbiting the Earth. Examples of debris include non-operational satellites, rocket bodies, and fragments generated from explosions, collisions, or faulty payload assembly.

Loading next visibility...
Identifier
204, 1961-031C
Orbit
LEO
Country
Flag of USUS
Related business
Manufacturer
Aerojet
Mission
Spacecraft
Bus & Motor
ABLESTAR, Unknown motor
Mass
~600 kg wet, 600 kg dry
Launch date (UTC)
1961-11-15 (64 years ago)
Launch vehicle
Unknown
Launch site
Air Force Eastern Test Range (AFETR)
Object type
Payload
Rocket body
Debris
Shape & HBR
Unknown
Radar Cross Section
Large (>1 m²)

Expand to show TLE details & history
Last TLE update: 9 hours ago

TLE from 9 hours ago
0 THOR ABLESTAR R/B
1   204U 61031C   25353.97572755  .00000073  00000-0  61843-4 0  9998
2   204  32.4408 237.3133 0098227  27.6944 332.8866 13.65065879198522
Epoch: 2025-12-19T23:25Z
TLE epoch observation values (Epoch: 2025-12-19T23:25:02.860Z)
Latitude
0.00002°
Longitude
157.24225°
Altitude
951.582 km
Speed
7.41 km/s
True Right ascension
15h 49m 15s
True Declination
0° 00' 00"
Sunlit
Object was in daylight at epoch
Visualization orbit readout
Latitude
Unknown
Longitude
Unknown
Altitude
Unknown
Speed
Unknown
Apparent Right ascension
Unknown
Apparent Declination
Unknown
Sunlit
N/A
Visualization observer readout
Local Sidereal Time
07:45:41
Azimuth
Unknown
Elevation
Unknown
Doppler factor
Unknown
Orbital elements
Apogee altitude
1,093.406 km
Perigee altitude
948.053 km
Semi-major axis
7,398.866 km
Eccentricity
0.00982
Inclination
32.4408°
RAAN
237.3133°
Arg. of periapsis
27.6944°
True anomaly
332.36795°
Mean anomaly
332.8866°
Eccentric anomaly
332.62784°
Mean motion
3.41032 °/min
Orbital period
105.56 mins
BSTAR
0.000061843
Loading maneuver chart data...
Computing Atmospheric mass density...
Loading historical data...
Loading historical data...
Loading historical data...
Loading historical data...
Loading historical data...
Loading historical data...
Loading historical data...
Other satellites on launch #31 in the year 1961 (1961-11-15 UTC)

Documentation

Showing up to 5 results
|